User: anonymous   Login
Location: Sperry Observatory
(40.6664°N, 74.3236°W)
Time: 19:48:14
(UTC-04:00)
Language:

JAS-2 - Orbit

View from above orbital plane
View from above orbital plane
View from above satellite
View from above satellite

Ground track
Ground track

The orbit data is extracted from the following two-line orbital elements,

1 24278U 96046B   16274.17238024 -.00000051  00000-0 -12433-4 0  9990
2 24278  98.5820 185.6403 0349401 290.8853  65.5213 13.53070963993718
Epoch (UTC): 30 September 2016 04:08:13
Eccentricity: 0.0349401
inclination: 98.5820°
perigee height: 801 km
apogee height: 1321 km
right ascension of ascending node: 185.6403°
argument of perigee: 290.8853°
revolutions per day: 13.53070963
mean anomaly at epoch: 65.5213°
orbit number at epoch: 99371

The dashed part of the orbit path shows where the satellite is in the earth's shadow,  

DLR